When you browse on this site, cookies collect data to enhance your experience and personalize the content and advertising you see.
Visit our Privacy Policy to learn more. By continuing to use the site, you agree to this use of cookies and data.
  • In Switzerland
  • List of Countries
  • For 7 days
  • Water Temperature
  • Weather Map
  • Weather Widgets
  • user-avatar
    Login

    Hourly Weather Cheyenne

    Today, 10 December, Tuesday

    Time Temperature Precipitation Wind Pressure Humidity
    00:00 -6°C° 0 mm 6 mps 606 mmHg 63%
    01:00 -6°C° 0 mm 6 mps 606 mmHg 63%
    02:00 -6°C° 0 mm 6 mps 605 mmHg 64%
    03:00 -8°C° 0 mm 6 mps 606 mmHg 67%
    04:00 -7°C° 0 mm 5 mps 606 mmHg 70%
    05:00 -7°C° 0 mm 4 mps 606 mmHg 73%
    06:00 -7°C° 0 mm 5 mps 607 mmHg 70%
    07:00 -8°C° 0 mm 6 mps 607 mmHg 68%
    08:00 -8°C° 0 mm 7 mps 607 mmHg 65%
    09:00 -7°C° 0 mm 7 mps 608 mmHg 63%
    10:00 -6°C° 0 mm 7 mps 608 mmHg 62%
    11:00 -3°C° 0 mm 7 mps 608 mmHg 60%
    12:00 -3°C° 0 mm 7 mps 608 mmHg 60%
    13:00 -2°C° 0 mm 7 mps 607 mmHg 59%
    14:00 -2°C° 0 mm 6 mps 607 mmHg 59%
    15:00 -2°C° 0 mm 7 mps 607 mmHg 59%
    16:00 -3°C° 0 mm 7 mps 607 mmHg 60%
    17:00 -4°C° 0 mm 7 mps 608 mmHg 61%
    18:00 -4°C° 0 mm 8 mps 608 mmHg 58%
    19:00 -4°C° 0 mm 9 mps 608 mmHg 54%
    20:00 -4°C° 0 mm 9 mps 608 mmHg 51%
    21:00 -4°C° 0 mm 9 mps 608 mmHg 51%
    22:00 -4°C° 0 mm 8 mps 608 mmHg 51%
    23:00 -4°C° 0 mm 8 mps 608 mmHg 51%

    Tomorrow, 11 December, Wednesday

    Time Temperature Precipitation Wind Pressure Humidity
    00:00 -3°C° 0 mm 7 mps 608 mmHg 50%
    01:00 -3°C° 0 mm 7 mps 608 mmHg 48%
    02:00 -3°C° 0 mm 7 mps 608 mmHg 46%
    03:00 -3°C° 0 mm 6 mps 607 mmHg 45%
    04:00 -3°C° 0 mm 6 mps 607 mmHg 44%
    05:00 -3°C° 0 mm 6 mps 607 mmHg 43%
    06:00 -2°C° 0 mm 5 mps 607 mmHg 42%
    07:00 -2°C° 0 mm 5 mps 607 mmHg 42%
    08:00 -1°C° 0 mm 5 mps 607 mmHg 41%
    09:00 0°C° 0 mm 5 mps 607 mmHg 41%
    10:00 +1°C° 0 mm 5 mps 606 mmHg 41%
    11:00 +2°C° 0 mm 5 mps 606 mmHg 40%
    12:00 +2°C° 0 mm 5 mps 606 mmHg 41%
    13:00 +2°C° 0 mm 5 mps 605 mmHg 41%
    14:00 +2°C° 0 mm 6 mps 604 mmHg 41%
    15:00 +2°C° 0 mm 7 mps 605 mmHg 41%
    16:00 0°C° 0 mm 8 mps 605 mmHg 42%
    17:00 0°C° 0 mm 9 mps 605 mmHg 42%
    18:00 -1°C° 0 mm 9 mps 605 mmHg 44%
    19:00 -1°C° 0 mm 9 mps 605 mmHg 45%
    20:00 -3°C° 0 mm 9 mps 605 mmHg 47%
    21:00 -3°C° 0 mm 9 mps 605 mmHg 50%
    22:00 -3°C° 0 mm 10 mps 606 mmHg 54%
    23:00 -4°C° 0 mm 10 mps 606 mmHg 57%

    Day after tomorrow, 12 December, Thursday

    Time Temperature Precipitation Wind Pressure Humidity
    00:00 -4°C° 0 mm 9 mps 606 mmHg 57%
    01:00 -5°C° 0 mm 8 mps 606 mmHg 58%
    02:00 -4°C° 0 mm 7 mps 606 mmHg 59%
    03:00 -4°C° 0 mm 7 mps 606 mmHg 56%
    04:00 -4°C° 0 mm 8 mps 607 mmHg 53%
    05:00 -4°C° 0 mm 8 mps 607 mmHg 50%
    06:00 -4°C° 0 mm 9 mps 607 mmHg 50%
    07:00 -4°C° 0 mm 9 mps 607 mmHg 49%
    08:00 -3°C° 0 mm 9 mps 607 mmHg 48%
    09:00 -3°C° 0 mm 9 mps 607 mmHg 47%
    10:00 -1°C° 0 mm 8 mps 607 mmHg 46%
    11:00 0°C° 0 mm 8 mps 606 mmHg 44%
    12:00 +1°C° 0 mm 8 mps 606 mmHg 45%
    13:00 +1°C° 0 mm 8 mps 605 mmHg 46%
    14:00 +1°C° 0 mm 8 mps 605 mmHg 47%
    15:00 +1°C° 0 mm 8 mps 605 mmHg 50%
    16:00 0°C° 0 mm 9 mps 605 mmHg 53%
    17:00 -2°C° 0 mm 10 mps 604 mmHg 56%
    18:00 -2°C° 0 mm 10 mps 604 mmHg 57%
    19:00 -2°C° 0 mm 11 mps 604 mmHg 57%
    20:00 -2°C° 0 mm 11 mps 604 mmHg 57%
    21:00 -2°C° 0 mm 11 mps 604 mmHg 58%
    22:00 -2°C° 0 mm 11 mps 604 mmHg 58%
    23:00 -2°C° 0 mm 11 mps 604 mmHg 59%

    13 December, Friday

    Time Temperature Precipitation Wind Pressure Humidity
    00:00 -2°C° 0 mm 12 mps 604 mmHg 59%
    01:00 -2°C° 0 mm 12 mps 603 mmHg 58%
    02:00 -2°C° 0 mm 12 mps 603 mmHg 58%
    03:00 -2°C° 0 mm 12 mps 603 mmHg 57%
    04:00 -2°C° 0 mm 12 mps 603 mmHg 57%
    05:00 -3°C° 0 mm 12 mps 602 mmHg 56%
    06:00 -3°C° 0 mm 12 mps 603 mmHg 53%
    07:00 -5°C° 0 mm 12 mps 604 mmHg 50%
    08:00 -6°C° 0 mm 11 mps 604 mmHg 48%
    09:00 -5°C° 0 mm 12 mps 605 mmHg 42%
    10:00 -4°C° 0 mm 14 mps 605 mmHg 36%
    11:00 -4°C° 0 mm 15 mps 606 mmHg 30%
    12:00 -4°C° 0 mm 14 mps 605 mmHg 31%
    13:00 -4°C° 0 mm 14 mps 604 mmHg 31%
    14:00 -4°C° 0 mm 14 mps 604 mmHg 31%
    15:00 -5°C° 0 mm 12 mps 604 mmHg 37%
    16:00 -5°C° 0 mm 10 mps 604 mmHg 43%
    17:00 -6°C° 0 mm 8 mps 604 mmHg 48%
    18:00 -6°C° 0 mm 7 mps 604 mmHg 50%
    19:00 -6°C° 0 mm 7 mps 604 mmHg 53%
    20:00 -6°C° 0 mm 7 mps 604 mmHg 55%
    21:00 -5°C° 0 mm 6 mps 603 mmHg 55%
    22:00 -5°C° 0 mm 5 mps 603 mmHg 55%
    23:00 -4°C° 0 mm 4 mps 602 mmHg 56%

    14 December, Saturday

    Time Temperature Precipitation Wind Pressure Humidity
    00:00 -4°C° 0 mm 4 mps 601 mmHg 55%
    01:00 -4°C° 0 mm 4 mps 600 mmHg 55%
    02:00 -4°C° 0 mm 4 mps 599 mmHg 55%
    03:00 -4°C° 0 mm 4 mps 599 mmHg 58%
    04:00 -5°C° 0 mm 4 mps 598 mmHg 62%
    05:00 -6°C° 0 mm 5 mps 597 mmHg 65%
    06:00 -5°C° 0 mm 4 mps 597 mmHg 66%
    07:00 -5°C° 0 mm 4 mps 596 mmHg 67%
    08:00 -6°C° 0 mm 3 mps 595 mmHg 68%
    09:00 -4°C° 0.1 mm 4 mps 596 mmHg 66%
    10:00 -3°C° 0.1 mm 4 mps 596 mmHg 65%
    11:00 -1°C° 0.1 mm 5 mps 597 mmHg 64%
    12:00 -2°C° 0 mm 8 mps 597 mmHg 55%
    13:00 -2°C° 0 mm 10 mps 597 mmHg 46%
    14:00 -2°C° 0 mm 13 mps 597 mmHg 38%
    15:00 -5°C° 0 mm 12 mps 597 mmHg 39%
    16:00 -6°C° 0 mm 11 mps 597 mmHg 41%
    17:00 -8°C° 0 mm 10 mps 597 mmHg 42%
    18:00 -8°C° 0 mm 11 mps 598 mmHg 45%
    19:00 -9°C° 0 mm 11 mps 598 mmHg 48%
    20:00 -9°C° 0 mm 11 mps 599 mmHg 51%
    21:00 -9°C° 0 mm 10 mps 599 mmHg 53%
    22:00 -10°C° 0 mm 9 mps 599 mmHg 56%
    23:00 -10°C° 0 mm 8 mps 599 mmHg 59%

    15 December, Sunday

    Time Temperature Precipitation Wind Pressure Humidity
    00:00 -9°C° 0 mm 7 mps 600 mmHg 58%
    01:00 -11°C° 0 mm 7 mps 600 mmHg 58%
    02:00 -10°C° 0 mm 6 mps 600 mmHg 58%
    03:00 -10°C° 0 mm 6 mps 601 mmHg 55%
    04:00 -11°C° 0 mm 7 mps 601 mmHg 52%
    05:00 -11°C° 0 mm 7 mps 601 mmHg 49%
    06:00 -11°C° 0 mm 7 mps 602 mmHg 48%
    07:00 -11°C° 0 mm 7 mps 602 mmHg 48%
    08:00 -11°C° 0 mm 7 mps 603 mmHg 48%
    09:00 -9°C° 0 mm 7 mps 603 mmHg 43%
    10:00 -8°C° 0 mm 8 mps 603 mmHg 39%
    11:00 -7°C° 0 mm 8 mps 603 mmHg 35%
    12:00 -7°C° 0 mm 8 mps 603 mmHg 34%
    13:00 -6°C° 0 mm 8 mps 603 mmHg 33%
    14:00 -6°C° 0 mm 7 mps 603 mmHg 32%
    15:00 -6°C° 0 mm 6 mps 603 mmHg 37%
    16:00 -8°C° 0 mm 6 mps 604 mmHg 41%
    17:00 -8°C° 0 mm 5 mps 604 mmHg 45%
    18:00 -8°C° 0 mm 5 mps 604 mmHg 45%
    19:00 -8°C° 0 mm 5 mps 605 mmHg 44%
    20:00 -10°C° 0 mm 5 mps 605 mmHg 44%
    21:00 -10°C° 0 mm 5 mps 605 mmHg 40%
    22:00 -10°C° 0 mm 6 mps 606 mmHg 37%
    23:00 -10°C° 0 mm 6 mps 606 mmHg 34%
    Show more